CSC8841 ZUUU-ZBYN

Flight info

Callsign CSC8841
Flight time N/A
Altitude 35100
Route GURET9W GURET W233 AGULU W81 APIMI W275 WJC G212 NITID NITID9Z
Aircraft A320/M-SDE3FGHIRWY/LB1

Departure

Time 2026-04-29 11:43
Airport Chengdu Shuangliu International Airport (ZUUU)

Arrival

Time N/A
Airport Taiyuan Wusu International Airport (ZBYN)
Time Latitude Longitude Altitude Speed Heading
2026-04-29 11:06 30.56689 103.94775 1637 ft 0 kts 202°
2026-04-29 11:31 30.56696 103.94779 1638 ft 2 kts 202°
2026-04-29 11:32 30.56710 103.94786 1638 ft 2 kts 202°
2026-04-29 11:32 30.56724 103.94792 1637 ft 2 kts 202°
2026-04-29 11:32 30.56738 103.94798 1638 ft 2 kts 202°
2026-04-29 11:32 30.56751 103.94805 1638 ft 2 kts 226°
2026-04-29 11:33 30.56758 103.94821 1638 ft 2 kts 269°
2026-04-29 11:33 30.56757 103.94832 1638 ft 1 kts 295°
2026-04-29 11:33 30.56754 103.94838 1638 ft 0 kts 292°
2026-04-29 11:37 30.56754 103.94837 1638 ft 0 kts 292°
2026-04-29 11:37 30.56770 103.94795 1638 ft 11 kts 292°
2026-04-29 11:37 30.56813 103.94669 1638 ft 21 kts 288°
2026-04-29 11:38 30.56853 103.94527 1638 ft 12 kts 288°
2026-04-29 11:38 30.56837 103.94443 1638 ft 15 kts 208°
2026-04-29 11:38 30.56720 103.94389 1638 ft 18 kts 201°
2026-04-29 11:38 30.56606 103.94336 1637 ft 20 kts 202°
2026-04-29 11:39 30.56467 103.94272 1637 ft 22 kts 201°
2026-04-29 11:39 30.56360 103.94222 1637 ft 9 kts 202°
2026-04-29 11:39 30.56319 103.94202 1637 ft 5 kts 202°
2026-04-29 11:39 30.56301 103.94152 1637 ft 11 kts 292°
2026-04-29 11:40 30.56317 103.94109 1637 ft 0 kts 291°
2026-04-29 11:41 30.56318 103.94106 1637 ft 2 kts 291°
2026-04-29 11:41 30.56334 103.94057 1637 ft 10 kts 291°
2026-04-29 11:42 30.56364 103.94012 1637 ft 5 kts
2026-04-29 11:42 30.56394 103.94023 1637 ft 0 kts 22°
2026-04-29 11:42 30.56396 103.94024 1637 ft 0 kts 22°
2026-04-29 11:42 30.56417 103.94034 1637 ft 19 kts 22°
2026-04-29 11:43 30.56765 103.94196 1638 ft 86 kts 21°
2026-04-29 11:43 30.57519 103.94548 1638 ft 144 kts 22°
2026-04-29 11:43 30.58571 103.95023 1883 ft 168 kts 21°
2026-04-29 11:43 30.59658 103.95509 2436 ft 170 kts 23°
2026-04-29 11:44 30.60754 103.96026 3048 ft 171 kts 24°
2026-04-29 11:44 30.61867 103.96554 3569 ft 175 kts 24°
2026-04-29 11:44 30.63038 103.97108 3856 ft 189 kts 24°
2026-04-29 11:44 30.64318 103.97710 4149 ft 205 kts 23°
2026-04-29 11:45 30.65688 103.98350 4368 ft 226 kts 22°
2026-04-29 11:45 30.67208 103.99060 4717 ft 244 kts 22°
2026-04-29 11:45 30.68762 104.00040 5080 ft 262 kts 40°
2026-04-29 11:45 30.69943 104.01661 5649 ft 271 kts 59°
2026-04-29 11:46 30.70848 104.03602 6398 ft 275 kts 61°
2026-04-29 11:46 30.71724 104.05569 7109 ft 279 kts 62°
2026-04-29 11:46 30.72632 104.07594 7816 ft 282 kts 62°
2026-04-29 11:46 30.73541 104.09596 8562 ft 286 kts 61°
2026-04-29 11:47 30.74468 104.11628 9249 ft 289 kts 61°
2026-04-29 11:47 30.75427 104.13716 9957 ft 293 kts 59°
2026-04-29 11:47 30.76654 104.15578 10534 ft 298 kts 41°
2026-04-29 11:47 30.78429 104.16896 10843 ft 312 kts 21°
2026-04-29 11:48 30.80536 104.17735 11141 ft 327 kts 17°
2026-04-29 11:48 30.82772 104.18546 11412 ft 343 kts 16°
2026-04-29 11:48 30.85100 104.19398 11742 ft 356 kts 17°
2026-04-29 11:48 30.87452 104.20281 12261 ft 361 kts 17°
2026-04-29 11:49 30.89852 104.21197 12818 ft 365 kts 17°
2026-04-29 11:49 30.92296 104.22136 13361 ft 369 kts 17°
2026-04-29 11:49 30.94720 104.23071 13899 ft 372 kts 17°
2026-04-29 11:49 30.97191 104.24099 14452 ft 376 kts 24°
2026-04-29 11:50 30.99298 104.25877 14950 ft 382 kts 46°
2026-04-29 11:50 31.00717 104.28496 15510 ft 386 kts 68°
2026-04-29 11:50 31.01238 104.31546 16074 ft 388 kts 87°
2026-04-29 11:50 31.01270 104.33634 16422 ft 390 kts 89°